星链-34742 (STARLINK-34742)

导读 | 豆包AI

STARLINK-34742是美国SpaceX星链星座的一颗卫星,于2025年7月26日发射升空,隶属太空探索技术公司(SpaceX)主导的星链互联网项目。星链项目旨在构建全球卫星互联网星座,为全球偏远地区等提供高速低延迟宽带网络服务,该卫星将助力拓展星链系统的全球覆盖与服务能力。

Basic Information
目录编号:
64942
目录名称:
STARLINK-34742
国际标识:
2025-158L
轨道中心:
EARTH
卫星名称:
星链-34742
卫星全名:
星链-34742 (STARLINK-34742)
卫星状态:
在轨 (已飞行277 天)
发射日期:
2025-07-26 UTC
国别 :
美国 (US)
星等 :
--
Orbit Information
数据来源 国际轨道数据 AOE轨道数据
星历时间 2026-04-29T11:50:24+0800
8小时前
查看轨道信息
2026-04-24T00:00:00+0800
5天前
查看轨道信息
半长轴 6927.638km 6927.7km
偏心率 0.0002041 0.0002237
轨道倾角 97.559° 97.585°
近地点辐角 70.733° 64.370°
升交点赤经 343.844° 338.454°
平近点角 289.412° 58.753°
近地点 548.087km 548.013km
远地点 550.915km 551.113km
周期 95.640分钟 95.641分钟
每日圈数 15.056535 15.056332
Detailed Information
固有亮度:
5
最大亮度:
2.5
卫星平台:
Starlink V1.0
覆盖范围:
全球
运营商:
太空探索技术公司
运营商所在国:
美国
制造商(研发单位):
太空探索技术公司
制造商所在国:
美国
使用方式:
暂无
Satellite Introduction
Starlink 计划是 SpaceX 推出的全球卫星互联网项目,通过发射低轨道卫星,为全球尤其是偏远地区提供高速、低延迟的互联网服务。自 2019 年起,Starlink 已部署数千颗卫星,旨在缩小全球数字鸿沟,推动互联网普及。该项目还为军事、航空等行业提供通信支持,带来广泛经济效益。
2D Orbit Map
3D Orbit Map
Orbit Altitude Analysis Chart
Orbit Inclination Analysis Chart
Orbit Comprehensive Analysis Chart
View Comprehensive Chart